Regional Weather Roundup
Issued by NWS Midland/Odessa, TX

Home | Current Version | Previous Version | Text Only | Print | Product List | Glossary On
Versions: 1 2 3 4 5 6 7 8 9 10 11 12 13 14 15 16 17 18 19 20 21 22 23 24 25 26 27 28 29 30 31 32 33 34 35 36 37 38 39 40 41 42 43 44 45 46 47 48 49 50
000
ASUS44 KMAF 172010
RWRMAF
MIDLAND AREA WEATHER ROUNDUP
NATIONAL WEATHER SERVICE MIDLAND TX
200 PM CST WED JAN 17 2018

...IN SOUTHWEST TEXAS AND SOUTHEAST NEW MEXICO...

CITY           SKY/WX    TMP DP  RH WIND       PRES   REMARKS
ALPINE         CLOUDY    39  23  54 S6        30.39F WCI  34
ANDREWS        CLOUDY    37  -6  16 S10       30.43F WCI  30
ARTESIA        SUNNY     39   9  28 SE12G18   30.38F WCI  32
BIG SPRING     CLOUDY    39  -3  16 SE8       30.49F WCI  34
CARLSBAD       SUNNY     37   5  26 SE12      30.39F WCI  29
DRYDEN           N/A     60   0   9 SE9       30.47F
FORT STOCKTON  CLOUDY    36   5  27 E10       30.40F WCI  28
GUAD PASS      SUNNY     37  17  44 W29       30.31F WCI  25
HOBBS          PTSUNNY   37  -8  14 S12       30.39F WCI  30
LAMESA         CLOUDY    39  -2  17 SE17G24   30.45F WCI  30
MARFA          CLOUDY    33  16  49 S8        30.36  WCI  26
MIDLAND AIRPK    N/A     37  -6  15 SE8       30.46F WCI  31
MIDLAND INTL   CLOUDY    36  -9  14 SE12      30.44F WCI  28
ODESSA         CLOUDY    36  -8  15 S12       30.44F WCI  28
PECOS          CLOUDY    36  -2  20 E7        30.44F WCI  30
PRESIDIO       MOCLDY    42  16  35 CALM      30.42F
SEMINOLE       CLOUDY    41  -1  16 S14       30.43F WCI  34
SNYDER         SUNNY     35   0  22 S7        30.50F WCI  29
WINK           CLOUDY    35  -7  16 SE10      30.43F WCI  27
$$
...OTHER STATIONS IN TEXAS...

CITY           SKY/WX    TMP DP  RH WIND       PRES   REMARKS
ABILENE        SUNNY     37   1  22 E7        30.54F WCI  32
AMARILLO       SUNNY     43  10  26 S20G26    30.35F WCI  34
AUSTIN         SUNNY     34  12  40 NE8       30.65F WCI  27
BROWNSVILLE    NOT AVBL
CORPUS CHRISTI CLOUDY    33  12  41 NE8       30.68F WCI  26
DALLAS FTW     SUNNY     34   2  25 VRB3      30.65F
DEL RIO        CLOUDY    37   5  26 S9        30.58F WCI  30
EL PASO        PTSUNNY   40  14  34 N6        30.37F WCI  36
HOUSTON INT    MOSUNNY   36  14  40 NE6       30.65F WCI  31
LUBBOCK        SUNNY     41   4  21 S17       30.41F WCI  32
SAN ANGELO     PTSUNNY   38  -3  17 CALM      30.52F
SAN ANTONIO    PTSUNNY   36   7  29 VRB3      30.62F
WACO           SUNNY     33   8  35 NE8       30.67F WCI  26
WICHITA FALLS  SUNNY     30   8  39 S17       30.51F WCI  18
$$
...OTHER LOCATIONS IN NEW MEXICO...

CITY           SKY/WX    TMP DP  RH WIND       PRES   REMARKS
ALAMOGORDO     MOSUNNY   37   9  30 NW7       30.38F WCI  32
ALBUQUERQUE    PTSUNNY   36  14  40 SW5       30.34F WCI  32
CANNON AFB     SUNNY     41  15  35 SW14      30.33F WCI  33
CLOVIS         SUNNY     42  16  34 SW17      30.33F WCI  34
HOLLOMAN AFB   MOSUNNY   40  10  29 CALM      30.40F
ROSWELL        SUNNY     40   9  28 S10       30.36F WCI  33
RUIDOSO        MOSUNNY   37   9  30 NW9       30.30F WCI  31
SANTA FE       SUNNY     39  15  37 VRB3      30.28F
TRUTH OR CONSE MOSUNNY   41  11  29 VRB3      30.33F
TUCUMCARI      SUNNY     44   9  23 SW10G18   30.28F WCI  39
$$




USA.gov is the U.S. government's official web portal to all federal, state and local government web resources and services.